{"data":{"norad_id":53914,"intl_designator":"2022-119AE","name":"STARLINK-5040","alt_names":[],"object_type":"PAYLOAD","status":"ACTIVE","operator":null,"country":"US","launch_date":"2022-09-24","launch_site_code":"AFETR","launch_vehicle":null,"mission":null,"orbit_class":"UNKNOWN","rcs_meters":null,"size_class":null,"mass_kg":null,"dimensions":null,"purposes":["comms"],"wikipedia_slug":null,"has_3d_model":false,"image_url":null,"decayed_at":null,"tle_current":{"epoch":"2026-09-20T22:00:03.000096Z","epoch_age_seconds":50728,"freshness":"FRESH","line1":"1 53914U 22119AE  26263.91670139  .00426832  00000+0  18276-1 0  9991","line2":"2 53914  53.1600 156.2397 0001266  83.6560 116.0263 15.20350883  5802","mean_motion":15.20350883,"eccentricity":0.0001266,"inclination_deg":53.16,"raan_deg":156.2397,"arg_perigee_deg":83.656,"mean_anomaly_deg":116.0263,"bstar":0.018276,"rev_number":580,"period_min":94.71497771347,"perigee_km":503.91002304965,"apogee_km":505.65277798866,"semimajor_km":6882.9184005192,"source":"CELESTRAK","updated_at":"2026-09-21T09:00:33.033925Z"}}}